QPF
0.00 0.00 0.00 0.00 0.00 0.00 0.00 0.01 0.01 0.01 0.01 0.01 0.01 0.01 0.01 0.01 0.05 0.05 0.02 0.02 0.02 0.02 0.02 0.02 0.01 0.02 0.03 0.08 0.08 0.04 0.03 0.02 0.01 0.01 0.01 0.01 0.03 0.04 0.02 0.02 0.02 0.02 0.01 0.01
0.01 0.01 0.00 0.00 0.00 0.00 0.00 0.01 0.01 0.01 0.00 0.01 0.01 0.00 0.01 0.01 0.02 0.03 0.02 0.02 0.03 0.02 0.02 0.01 0.01 0.01 0.01 0.02 0.07 0.09 0.06 0.04 0.02 0.02 0.01 0.02 0.02 0.03 0.02 0.01 0.01 0.01 0.01 0.01
0.01 0.00 0.00 0.00 0.00 0.00 0.00 0.01 0.01 0.01 0.01 0.01 0.01 0.01 0.01 0.01 0.01 0.02 0.01 0.01 0.03 0.02 0.01 0.02 0.01 0.01 0.00 0.01 0.01 0.05 0.08 0.06 0.04 0.03 0.03 0.03 0.03 0.02 0.01 0.01 0.01 0.01 0.01 0.00
0.00 0.00 0.00 0.00 0.00 0.00 0.00 0.00 0.00 0.01 0.01 0.01 0.01 0.01 0.01 0.01 0.01 0.01 0.01 0.01 0.01 0.01 0.01 0.01 0.01 0.01 0.01 0.00 0.00 0.01 0.03 0.03 0.04 0.05 0.04 0.04 0.06 0.03 0.01 0.01 0.01 0.01 0.01 0.01
0.00 0.00 0.00 0.01 0.00 0.00 0.00 0.00 0.00 0.01 0.01 0.01 0.01 0.01 0.00 0.00 0.01 0.00 0.00 0.01 0.01 0.00 0.00 0.01 0.00 0.00 0.01 0.01 0.00 0.00 0.01 0.01 0.01 0.01 0.02 0.03 0.04 0.03 0.02 0.01 0.01 0.01 0.00 0.00
0.00 0.00 0.00 0.00 0.00 0.00 0.00 0.01 0.01 0.01 0.02 0.02 0.01 0.00 0.00 0.00 0.00 0.00 0.00 0.01 0.01 0.01 0.00 0.00 0.00 0.00 0.00 0.01 0.01 0.01 0.01 0.01 0.01 0.01 0.02 0.02 0.03 0.04 0.04 0.02 0.02 0.01 0.01 0.01
0.01 0.00 0.00 0.00 0.01 0.01 0.01 0.01 0.02 0.02 0.02 0.01 0.00 0.00 0.00 0.00 0.00 0.00 0.00 0.00 0.01 0.02 0.01 0.01 0.00 0.00 0.00 0.01 0.01 0.01 0.01 0.01 0.01 0.01 0.01 0.02 0.02 0.04 0.05 0.03 0.02 0.01 0.01 0.01
0.01 0.01 0.01 0.01 0.01 0.01 0.01 0.01 0.02 0.02 0.01 0.01 0.01 0.00 0.00 0.00 0.00 0.00 0.00 0.00 0.00 0.01 0.01 0.01 0.01 0.00 0.01 0.01 0.00 0.00 0.01 0.01 0.01 0.01 0.02 0.02 0.02 0.02 0.03 0.03 0.02 0.01 0.00 0.01
0.02 0.02 0.01 0.00 0.01 0.01 0.01 0.01 0.00 0.01 0.01 0.01 0.01 0.00 0.00 0.00 0.00 0.00 0.00 0.00 0.00 0.00 0.01 0.01 0.01 0.01 0.00 0.00 0.00 0.00 0.01 0.01 0.01 0.01 0.02 0.02 0.02 0.01 0.02 0.03 0.04 0.02 0.01 0.01
0.03 0.03 0.01 0.00 0.01 0.01 0.02 0.02 0.01 0.02 0.02 0.01 0.01 0.00 0.00 0.00 0.00 0.00 0.00 0.00 0.00 0.00 0.01 0.01 0.01 0.01 0.00 0.00 0.00 0.00 0.01 0.01 0.01 0.01 0.03 0.02 0.01 0.01 0.02 0.02 0.03 0.02 0.01 0.01
0.02 0.04 0.02 0.01 0.01 0.01 0.02 0.02 0.02 0.02 0.01 0.01 0.01 0.01 0.01 0.00 0.00 0.00 0.01 0.01 0.01 0.00 0.00 0.00 0.00 0.00 0.00 0.00 0.00 0.00 0.01 0.01 0.01 0.01 0.01 0.02 0.01 0.01 0.01 0.01 0.01 0.02 0.03 0.02
0.02 0.02 0.02 0.01 0.01 0.00 0.02 0.02 0.01 0.02 0.01 0.01 0.01 0.02 0.02 0.00 0.00 0.01 0.01 0.01 0.00 0.00 0.00 0.00 0.00 0.00 0.00 0.00 0.01 0.01 0.01 0.01 0.01 0.01 0.01 0.01 0.01 0.01 0.01 0.01 0.01 0.02 0.03 0.02
0.02 0.02 0.02 0.02 0.01 0.01 0.02 0.02 0.01 0.01 0.01 0.01 0.01 0.02 0.02 0.01 0.01 0.01 0.01 0.00 0.00 0.00 0.00 0.00 0.00 0.00 0.00 0.01 0.01 0.01 0.01 0.01 0.01 0.01 0.01 0.01 0.00 0.00 0.01 0.02 0.01 0.01 0.01 0.01
0.03 0.03 0.02 0.02 0.01 0.01 0.01 0.01 0.01 0.01 0.01 0.01 0.01 0.02 0.03 0.01 0.01 0.01 0.01 0.01 0.00 0.00 0.01 0.00 0.00 0.00 0.00 0.01 0.01 0.01 0.02 0.02 0.02 0.01 0.01 0.01 0.01 0.01 0.01 0.01 0.01 0.00 0.01 0.01
0.04 0.02 0.01 0.01 0.01 0.01 0.01 0.01 0.01 0.01 0.00 0.01 0.01 0.02 0.03 0.03 0.01 0.01 0.01 0.01 0.01 0.01 0.01 0.01 0.01 0.01 0.01 0.01 0.01 0.02 0.03 0.03 0.02 0.01 0.01 0.01 0.01 0.01 0.01 0.01 0.01 0.01 0.01 0.01
0.04 0.03 0.01 0.01 0.00 0.01 0.01 0.01 0.01 0.01 0.01 0.01 0.01 0.01 0.02 0.03 0.02 0.02 0.02 0.01 0.01 0.01 0.02 0.02 0.01 0.01 0.01 0.01 0.01 0.01 0.02 0.03 0.02 0.01 0.01 0.01 0.02 0.02 0.01 0.01 0.01 0.01 0.01 0.01
0.04 0.04 0.03 0.02 0.01 0.01 0.02 0.02 0.01 0.01 0.01 0.01 0.01 0.01 0.01 0.02 0.03 0.03 0.03 0.03 0.02 0.02 0.03 0.02 0.01 0.01 0.01 0.01 0.02 0.02 0.02 0.03 0.03 0.02 0.02 0.02 0.02 0.01 0.01 0.01 0.01 0.01 0.01 0.01
0.03 0.03 0.03 0.02 0.02 0.03 0.02 0.01 0.01 0.01 0.00 0.00 0.00 0.00 0.01 0.02 0.03 0.03 0.03 0.03 0.02 0.02 0.03 0.03 0.03 0.02 0.01 0.01 0.02 0.02 0.03 0.03 0.03 0.02 0.01 0.01 0.01 0.01 0.01 0.00 0.00 0.01 0.01 0.00
0.02 0.03 0.03 0.02 0.02 0.01 0.00 0.00 0.01 0.00 0.00 0.00 0.00 0.00 0.01 0.01 0.02 0.03 0.03 0.03 0.02 0.02 0.02 0.02 0.03 0.03 0.02 0.02 0.02 0.03 0.03 0.03 0.03 0.02 0.02 0.02 0.02 0.01 0.01 0.00 0.01 0.01 0.01 0.01
0.02 0.03 0.04 0.02 0.02 0.01 0.00 0.00 0.00 0.00 0.00 0.00 0.00 0.00 0.00 0.00 0.00 0.01 0.02 0.02 0.02 0.02 0.02 0.02 0.02 0.02 0.02 0.02 0.03 0.03 0.05 0.04 0.03 0.03 0.02 0.02 0.01 0.01 0.01 0.01 0.02 0.01 0.00 0.00
0.02 0.02 0.02 0.02 0.02 0.00 0.00 0.00 0.00 0.00 0.00 0.00 0.00 0.00 0.00 0.00 0.00 0.00 0.01 0.01 0.01 0.01 0.02 0.02 0.02 0.02 0.02 0.03 0.03 0.04 0.06 0.05 0.03 0.03 0.02 0.02 0.02 0.01 0.01 0.01 0.01 0.01 0.01 0.01
0.02 0.02 0.01 0.01 0.01 0.01 0.00 0.00 0.00 0.00 0.00 0.00 0.00 0.00 0.00 0.00 0.00 0.00 0.00 0.00 0.00 0.00 0.01 0.02 0.02 0.02 0.02 0.03 0.03 0.03 0.03 0.04 0.04 0.03 0.03 0.04 0.02 0.01 0.01 0.00 0.00 0.00 0.00 0.00
0.02 0.02 0.01 0.01 0.00 0.00 0.00 0.00 0.00 0.00 0.00 0.00 0.00 0.00 0.00 0.00 0.00 0.00 0.00 0.00 0.00 0.00 0.01 0.01 0.02 0.02 0.02 0.02 0.02 0.01 0.01 0.02 0.03 0.05 0.04 0.03 0.04 0.03 0.02 0.01 0.01 0.00 0.00 0.00
0.02 0.01 0.01 0.00 0.00 0.00 0.00 0.00 0.00 0.00 0.00 0.00 0.00 0.00 0.00 0.00 0.00 0.00 0.00 0.00 0.00 0.00 0.00 0.00 0.01 0.01 0.01 0.01 0.01 0.01 0.01 0.01 0.01 0.01 0.02 0.03 0.02 0.02 0.02 0.01 0.02 0.02 0.01 0.01
0.02 0.02 0.02 0.01 0.00 0.00 0.00 0.00 0.00 0.00 0.00 0.00 0.00 0.00 0.00 0.00 0.00 0.00 0.00 0.00 0.00 0.00 0.00 0.01 0.01 0.01 0.01 0.01 0.01 0.01 0.01 0.01 0.01 0.01 0.01 0.02 0.02 0.02 0.02 0.01 0.01 0.01 0.01 0.01
0.01 0.02 0.01 0.01 0.00 0.00 0.00 0.00 0.00 0.00 0.00 0.00 0.00 0.00 0.00 0.00 0.00 0.00 0.00 0.00 0.00 0.01 0.01 0.01 0.01 0.01 0.01 0.01 0.01 0.01 0.01 0.01 0.01 0.01 0.01 0.02 0.01 0.01 0.01 0.01 0.01 0.02 0.02 0.03
MSLP
1013.78 1014.40 1014.93 1015.37 1015.72 1016.02 1016.30 1016.58 1016.87 1017.16 1017.43 1017.64 1017.79 1017.87 1017.88 1017.85 1017.82 1017.82 1017.87 1017.98 1018.14 1018.32 1018.50 1018.63 1018.71 1018.72 1018.68 1018.61 1018.56 1018.56 1018.63 1018.78 1019.00 1019.25 1019.50 1019.72 1019.87 1019.94 1019.92 1019.83 1019.68 1019.50 1019.32 1019.16
1014.26 1014.80 1015.26 1015.62 1015.93 1016.22 1016.51 1016.83 1017.17 1017.50 1017.80 1018.03 1018.16 1018.18 1018.10 1017.96 1017.82 1017.71 1017.68 1017.73 1017.87 1018.08 1018.30 1018.50 1018.65 1018.74 1018.76 1018.76 1018.75 1018.77 1018.86 1019.02 1019.24 1019.49 1019.75 1019.97 1020.13 1020.20 1020.18 1020.09 1019.94 1019.78 1019.60 1019.45
1014.63 1015.11 1015.49 1015.81 1016.10 1016.39 1016.71 1017.08 1017.47 1017.85 1018.17 1018.39 1018.47 1018.41 1018.23 1017.98 1017.72 1017.52 1017.42 1017.44 1017.58 1017.82 1018.11 1018.39 1018.63 1018.80 1018.90 1018.95 1018.99 1019.04 1019.14 1019.30 1019.51 1019.77 1020.02 1020.24 1020.39 1020.46 1020.44 1020.35 1020.22 1020.06 1019.89 1019.74
1014.90 1015.31 1015.65 1015.95 1016.24 1016.56 1016.94 1017.37 1017.81 1018.23 1018.55 1018.74 1018.75 1018.59 1018.30 1017.93 1017.56 1017.27 1017.12 1017.12 1017.29 1017.58 1017.94 1018.31 1018.64 1018.89 1019.07 1019.17 1019.24 1019.31 1019.42 1019.58 1019.79 1020.03 1020.27 1020.48 1020.63 1020.70 1020.69 1020.60 1020.47 1020.32 1020.17 1020.02
1015.08 1015.43 1015.74 1016.04 1016.37 1016.76 1017.20 1017.70 1018.20 1018.64 1018.95 1019.08 1019.00 1018.74 1018.32 1017.83 1017.37 1017.01 1016.82 1016.82 1017.02 1017.36 1017.80 1018.26 1018.67 1019.00 1019.23 1019.38 1019.47 1019.55 1019.66 1019.81 1020.01 1020.24 1020.47 1020.68 1020.82 1020.89 1020.88 1020.80 1020.68 1020.54 1020.39 1020.26
1015.19 1015.50 1015.81 1016.13 1016.52 1016.98 1017.51 1018.08 1018.62 1019.06 1019.34 1019.40 1019.22 1018.84 1018.30 1017.71 1017.16 1016.75 1016.54 1016.55 1016.79 1017.20 1017.71 1018.24 1018.72 1019.10 1019.38 1019.55 1019.66 1019.74 1019.84 1019.98 1020.16 1020.38 1020.60 1020.80 1020.94 1021.01 1021.00 1020.93 1020.82 1020.68 1020.54 1020.42
1015.28 1015.56 1015.86 1016.22 1016.67 1017.21 1017.82 1018.45 1019.02 1019.45 1019.68 1019.66 1019.39 1018.89 1018.25 1017.56 1016.95 1016.50 1016.29 1016.33 1016.62 1017.08 1017.66 1018.25 1018.78 1019.21 1019.51 1019.70 1019.80 1019.88 1019.96 1020.08 1020.24 1020.44 1020.65 1020.84 1020.98 1021.05 1021.04 1020.97 1020.86 1020.73 1020.61 1020.49
1015.38 1015.61 1015.92 1016.31 1016.82 1017.42 1018.09 1018.76 1019.34 1019.74 1019.92 1019.82 1019.45 1018.86 1018.13 1017.39 1016.74 1016.28 1016.08 1016.16 1016.49 1017.01 1017.63 1018.27 1018.84 1019.29 1019.61 1019.80 1019.91 1019.97 1020.04 1020.14 1020.28 1020.46 1020.66 1020.83 1020.95 1021.02 1021.01 1020.94 1020.83 1020.71 1020.60 1020.50
1015.48 1015.67 1015.97 1016.38 1016.92 1017.56 1018.26 1018.94 1019.51 1019.88 1019.99 1019.82 1019.38 1018.72 1017.95 1017.17 1016.52 1016.08 1015.91 1016.03 1016.40 1016.96 1017.62 1018.29 1018.88 1019.34 1019.67 1019.87 1019.97 1020.03 1020.09 1020.18 1020.31 1020.47 1020.64 1020.79 1020.91 1020.95 1020.94 1020.87 1020.77 1020.66 1020.56 1020.48
1015.57 1015.72 1015.99 1016.40 1016.95 1017.59 1018.29 1018.95 1019.48 1019.81 1019.86 1019.64 1019.15 1018.47 1017.69 1016.93 1016.30 1015.90 1015.78 1015.93 1016.34 1016.93 1017.61 1018.28 1018.88 1019.35 1019.68 1019.89 1020.01 1020.07 1020.14 1020.22 1020.34 1020.49 1020.65 1020.78 1020.88 1020.91 1020.89 1020.82 1020.73 1020.63 1020.55 1020.49
1015.63 1015.74 1015.98 1016.36 1016.87 1017.49 1018.15 1018.76 1019.24 1019.52 1019.53 1019.28 1018.79 1018.12 1017.37 1016.67 1016.10 1015.76 1015.69 1015.88 1016.31 1016.90 1017.57 1018.24 1018.83 1019.30 1019.64 1019.86 1020.00 1020.10 1020.18 1020.29 1020.41 1020.56 1020.70 1020.83 1020.91 1020.93 1020.91 1020.85 1020.77 1020.69 1020.63 1020.60
1015.65 1015.72 1015.92 1016.26 1016.72 1017.28 1017.87 1018.42 1018.83 1019.06 1019.04 1018.79 1018.32 1017.71 1017.05 1016.42 1015.95 1015.68 1015.66 1015.88 1016.31 1016.88 1017.52 1018.16 1018.72 1019.18 1019.53 1019.78 1019.96 1020.09 1020.22 1020.36 1020.51 1020.67 1020.82 1020.94 1021.02 1021.04 1021.03 1020.98 1020.93 1020.88 1020.85 1020.85
1015.63 1015.68 1015.84 1016.13 1016.52 1017.00 1017.51 1017.97 1018.32 1018.49 1018.47 1018.24 1017.83 1017.31 1016.75 1016.25 1015.87 1015.69 1015.72 1015.95 1016.36 1016.89 1017.48 1018.05 1018.58 1019.02 1019.37 1019.64 1019.86 1020.05 1020.23 1020.42 1020.62 1020.81 1020.98 1021.11 1021.20 1021.25 1021.25 1021.24 1021.22 1021.21 1021.22 1021.27
1015.61 1015.65 1015.78 1016.01 1016.34 1016.73 1017.13 1017.50 1017.78 1017.91 1017.88 1017.69 1017.37 1016.96 1016.54 1016.17 1015.91 1015.81 1015.88 1016.12 1016.49 1016.95 1017.46 1017.96 1018.42 1018.82 1019.16 1019.46 1019.72 1019.97 1020.22 1020.48 1020.73 1020.96 1021.17 1021.33 1021.45 1021.53 1021.57 1021.60 1021.63 1021.67 1021.74 1021.83
1015.62 1015.66 1015.78 1015.96 1016.21 1016.51 1016.81 1017.09 1017.29 1017.38 1017.36 1017.22 1016.99 1016.71 1016.43 1016.20 1016.07 1016.05 1016.16 1016.38 1016.71 1017.09 1017.50 1017.90 1018.28 1018.63 1018.96 1019.26 1019.56 1019.87 1020.19 1020.51 1020.82 1021.11 1021.37 1021.58 1021.74 1021.86 1021.96 1022.04 1022.13 1022.24 1022.36 1022.49
1015.71 1015.77 1015.86 1016.00 1016.18 1016.38 1016.59 1016.76 1016.89 1016.95 1016.93 1016.85 1016.71 1016.56 1016.43 1016.34 1016.32 1016.39 1016.53 1016.75 1017.02 1017.32 1017.63 1017.94 1018.23 1018.51 1018.80 1019.11 1019.43 1019.78 1020.16 1020.54 1020.92 1021.27 1021.58 1021.84 1022.05 1022.23 1022.38 1022.53 1022.68 1022.85 1023.03 1023.21
1015.90 1015.97 1016.05 1016.14 1016.25 1016.36 1016.46 1016.54 1016.59 1016.61 1016.59 1016.55 1016.51 1016.48 1016.48 1016.53 1016.63 1016.79 1016.98 1017.20 1017.43 1017.66 1017.88 1018.09 1018.30 1018.52 1018.76 1019.05 1019.39 1019.77 1020.18 1020.62 1021.05 1021.45 1021.81 1022.12 1022.39 1022.62 1022.84 1023.05 1023.27 1023.49 1023.73 1023.95
1016.17 1016.24 1016.30 1016.35 1016.38 1016.40 1016.40 1016.38 1016.36 1016.33 1016.31 1016.31 1016.34 1016.42 1016.55 1016.73 1016.95 1017.19 1017.44 1017.68 1017.90 1018.08 1018.24 1018.38 1018.52 1018.68 1018.89 1019.16 1019.49 1019.88 1020.32 1020.79 1021.25 1021.70 1022.10 1022.46 1022.78 1023.07 1023.33 1023.59 1023.86 1024.14 1024.42 1024.69
1016.47 1016.53 1016.56 1016.55 1016.50 1016.43 1016.34 1016.23 1016.13 1016.06 1016.02 1016.05 1016.14 1016.31 1016.56 1016.86 1017.19 1017.54 1017.87 1018.16 1018.39 1018.58 1018.71 1018.81 1018.91 1019.03 1019.21 1019.45 1019.77 1020.17 1020.61 1021.09 1021.58 1022.05 1022.49 1022.89 1023.25 1023.57 1023.88 1024.19 1024.50 1024.81 1025.13 1025.42
1016.75 1016.77 1016.74 1016.67 1016.55 1016.40 1016.21 1016.03 1015.86 1015.74 1015.70 1015.74 1015.89 1016.14 1016.48 1016.89 1017.34 1017.79 1018.22 1018.58 1018.88 1019.09 1019.24 1019.35 1019.45 1019.56 1019.72 1019.95 1020.26 1020.64 1021.08 1021.57 1022.06 1022.54 1023.00 1023.42 1023.81 1024.17 1024.51 1024.84 1025.18 1025.52 1025.86 1026.17
1016.93 1016.89 1016.80 1016.66 1016.48 1016.25 1016.00 1015.75 1015.53 1015.38 1015.33 1015.39 1015.58 1015.89 1016.32 1016.83 1017.38 1017.94 1018.47 1018.93 1019.31 1019.60 1019.81 1019.96 1020.09 1020.22 1020.39 1020.62 1020.92 1021.29 1021.72 1022.19 1022.68 1023.17 1023.64 1024.07 1024.48 1024.86 1025.22 1025.57 1025.93 1026.28 1026.63 1026.97
1016.97 1016.86 1016.71 1016.51 1016.26 1015.98 1015.68 1015.40 1015.16 1015.00 1014.95 1015.03 1015.25 1015.62 1016.11 1016.70 1017.35 1018.01 1018.64 1019.21 1019.69 1020.08 1020.38 1020.60 1020.79 1020.96 1021.16 1021.40 1021.70 1022.07 1022.48 1022.94 1023.42 1023.90 1024.37 1024.81 1025.23 1025.62 1026.00 1026.38 1026.74 1027.11 1027.47 1027.81
1016.85 1016.67 1016.46 1016.21 1015.92 1015.62 1015.31 1015.03 1014.80 1014.66 1014.63 1014.73 1014.99 1015.40 1015.94 1016.59 1017.31 1018.05 1018.77 1019.44 1020.02 1020.51 1020.91 1021.22 1021.48 1021.72 1021.96 1022.23 1022.54 1022.90 1023.31 1023.75 1024.22 1024.69 1025.15 1025.60 1026.03 1026.44 1026.84 1027.23 1027.61 1027.99 1028.36 1028.71
1016.60 1016.36 1016.10 1015.82 1015.53 1015.23 1014.95 1014.71 1014.52 1014.42 1014.43 1014.58 1014.87 1015.31 1015.89 1016.57 1017.33 1018.12 1018.90 1019.64 1020.31 1020.89 1021.38 1021.79 1022.14 1022.45 1022.74 1023.04 1023.37 1023.73 1024.13 1024.56 1025.01 1025.47 1025.93 1026.38 1026.82 1027.26 1027.67 1028.09 1028.49 1028.88 1029.27 1029.63
1016.26 1015.97 1015.68 1015.39 1015.13 1014.88 1014.66 1014.49 1014.38 1014.35 1014.43 1014.63 1014.96 1015.42 1016.00 1016.69 1017.46 1018.26 1019.07 1019.86 1020.58 1021.23 1021.81 1022.30 1022.72 1023.10 1023.45 1023.79 1024.13 1024.50 1024.90 1025.31 1025.75 1026.20 1026.66 1027.12 1027.57 1028.02 1028.47 1028.91 1029.34 1029.76 1030.16 1030.54
1015.87 1015.55 1015.25 1015.00 1014.78 1014.61 1014.48 1014.41 1014.41 1014.48 1014.64 1014.89 1015.26 1015.74 1016.32 1016.99 1017.73 1018.52 1019.32 1020.11 1020.86 1021.55 1022.17 1022.73 1023.22 1023.65 1024.05 1024.43 1024.80 1025.18 1025.57 1025.98 1026.41 1026.85 1027.31 1027.77 1028.24 1028.72 1029.19 1029.66 1030.12 1030.56 1030.99 1031.39
Thickness
5727 5722 5716 5719 5721 5721 5719 5715 5711 5713 5720 5716 5715 5717 5720 5724 5723 5724 5725 5726 5726 5726 5729 5730 5730 5729 5729 5730 5729 5728 5727 5726 5725 5725 5724 5723 5723 5725 5725 5725 5724 5724 5725 5724
5717 5713 5721 5722 5720 5716 5714 5710 5709 5712 5717 5715 5713 5715 5723 5724 5723 5726 5727 5727 5727 5727 5727 5726 5727 5727 5727 5727 5726 5726 5726 5724 5723 5722 5723 5721 5720 5721 5721 5720 5720 5721 5722 5721
5710 5715 5720 5715 5711 5709 5709 5709 5709 5708 5709 5712 5710 5709 5717 5723 5725 5725 5727 5728 5728 5726 5725 5726 5725 5726 5725 5725 5725 5724 5724 5722 5721 5720 5720 5718 5717 5717 5717 5716 5717 5717 5717 5717
5709 5714 5712 5709 5708 5709 5702 5712 5711 5707 5702 5702 5706 5700 5715 5721 5720 5721 5723 5726 5727 5727 5726 5725 5724 5724 5724 5724 5724 5724 5722 5722 5720 5719 5718 5717 5714 5714 5714 5715 5714 5714 5713 5713
5705 5709 5707 5704 5707 5709 5707 5711 5709 5706 5703 5700 5705 5700 5714 5720 5716 5720 5724 5726 5727 5727 5727 5725 5724 5724 5724 5723 5722 5722 5721 5720 5718 5718 5716 5715 5714 5713 5713 5712 5711 5711 5710 5710
5706 5712 5710 5708 5709 5709 5707 5705 5703 5702 5699 5689 5701 5699 5707 5719 5721 5724 5726 5727 5727 5726 5726 5725 5725 5723 5722 5721 5718 5718 5717 5716 5715 5714 5714 5713 5711 5709 5708 5708 5708 5708 5708 5707
5695 5702 5707 5709 5701 5702 5702 5695 5685 5682 5683 5689 5703 5698 5709 5725 5728 5728 5727 5727 5727 5726 5724 5723 5721 5719 5718 5716 5715 5715 5714 5712 5712 5712 5711 5711 5709 5708 5706 5706 5705 5705 5706 5705
5687 5688 5701 5705 5703 5699 5700 5697 5684 5675 5679 5691 5697 5697 5715 5725 5728 5729 5729 5728 5726 5724 5723 5721 5719 5717 5716 5715 5714 5713 5712 5710 5709 5710 5710 5709 5707 5706 5706 5704 5704 5703 5703 5703
5689 5688 5702 5704 5706 5705 5696 5696 5701 5692 5690 5686 5696 5705 5716 5721 5721 5722 5723 5723 5722 5722 5721 5720 5718 5716 5715 5714 5713 5712 5710 5709 5708 5708 5707 5706 5706 5705 5703 5703 5702 5701 5701 5699
5693 5685 5694 5697 5699 5699 5703 5700 5692 5685 5677 5678 5691 5698 5705 5712 5715 5717 5719 5719 5720 5720 5719 5719 5717 5715 5714 5713 5712 5710 5709 5708 5706 5705 5704 5703 5702 5701 5701 5700 5699 5699 5698 5697
5691 5683 5685 5690 5689 5691 5691 5691 5691 5688 5688 5682 5682 5696 5716 5715 5718 5717 5719 5720 5719 5718 5717 5716 5716 5714 5713 5711 5710 5708 5707 5705 5704 5703 5702 5700 5699 5698 5698 5697 5696 5696 5695 5694
5687 5685 5682 5688 5697 5699 5696 5696 5692 5682 5683 5687 5686 5696 5718 5717 5719 5719 5718 5718 5718 5717 5716 5715 5713 5711 5710 5708 5707 5705 5705 5704 5702 5701 5699 5698 5696 5695 5695 5694 5694 5693 5692 5692
5683 5678 5672 5674 5681 5687 5687 5692 5694 5693 5689 5685 5681 5693 5713 5714 5715 5715 5714 5714 5714 5713 5712 5712 5710 5708 5707 5706 5704 5703 5703 5701 5699 5697 5696 5694 5694 5693 5691 5691 5691 5690 5690 5689
5682 5679 5675 5671 5680 5687 5685 5686 5689 5688 5683 5684 5689 5696 5705 5707 5708 5710 5711 5710 5710 5710 5709 5708 5706 5704 5704 5703 5702 5701 5700 5698 5696 5694 5693 5692 5691 5690 5689 5688 5687 5686 5686 5685
5677 5675 5679 5682 5686 5685 5685 5685 5686 5687 5691 5688 5694 5696 5703 5707 5707 5708 5708 5707 5705 5704 5704 5704 5702 5702 5700 5700 5699 5699 5697 5696 5694 5691 5690 5689 5689 5687 5685 5684 5683 5682 5681 5681
5674 5672 5675 5675 5680 5681 5680 5686 5687 5686 5689 5690 5692 5696 5709 5709 5709 5706 5705 5702 5701 5701 5701 5701 5700 5700 5698 5698 5698 5697 5694 5693 5692 5689 5688 5686 5685 5683 5681 5680 5679 5678 5677 5677
5667 5668 5667 5669 5676 5674 5674 5689 5689 5688 5693 5693 5691 5699 5705 5702 5702 5703 5703 5701 5699 5699 5699 5699 5699 5698 5698 5699 5698 5695 5694 5692 5689 5688 5685 5683 5681 5679 5678 5676 5675 5673 5672 5672
5663 5664 5665 5665 5666 5655 5686 5700 5696 5692 5695 5699 5699 5702 5703 5702 5702 5703 5703 5700 5699 5698 5697 5697 5698 5698 5698 5698 5696 5694 5691 5689 5687 5685 5683 5680 5678 5676 5674 5672 5671 5670 5670 5668
5664 5660 5659 5660 5657 5667 5684 5693 5693 5688 5690 5701 5699 5699 5700 5701 5698 5698 5701 5700 5699 5698 5697 5696 5697 5696 5696 5695 5693 5690 5687 5686 5683 5681 5679 5678 5676 5673 5671 5668 5667 5667 5666 5664
5656 5659 5658 5657 5652 5656 5681 5695 5699 5691 5684 5700 5701 5698 5697 5695 5690 5695 5700 5698 5697 5696 5695 5694 5694 5694 5692 5691 5690 5686 5684 5681 5679 5678 5677 5675 5673 5670 5668 5666 5665 5663 5661 5660
5648 5650 5652 5654 5654 5669 5688 5692 5691 5676 5686 5701 5702 5700 5697 5696 5699 5700 5699 5696 5694 5693 5691 5690 5690 5689 5689 5688 5686 5683 5680 5678 5678 5675 5673 5671 5669 5666 5664 5663 5661 5659 5657 5655
5652 5652 5652 5654 5652 5664 5686 5685 5684 5691 5701 5701 5701 5700 5698 5697 5696 5696 5695 5693 5691 5689 5687 5686 5685 5684 5684 5684 5682 5679 5677 5677 5675 5671 5669 5667 5665 5663 5661 5658 5656 5655 5653 5650
5654 5660 5663 5664 5669 5681 5686 5688 5693 5696 5697 5698 5699 5698 5696 5693 5692 5691 5690 5689 5687 5686 5684 5683 5681 5680 5679 5679 5678 5676 5674 5672 5670 5667 5665 5663 5662 5660 5658 5655 5652 5651 5649 5648
5651 5655 5659 5663 5672 5677 5680 5685 5688 5691 5693 5695 5696 5695 5693 5690 5689 5688 5687 5685 5684 5683 5681 5680 5678 5676 5675 5674 5674 5673 5671 5669 5666 5663 5661 5659 5658 5656 5654 5651 5650 5648 5646 5644
5645 5647 5653 5659 5668 5672 5676 5679 5683 5686 5689 5690 5691 5691 5690 5688 5686 5685 5684 5682 5681 5679 5678 5677 5675 5673 5672 5671 5669 5668 5667 5666 5663 5661 5658 5656 5654 5652 5649 5646 5645 5644 5642 5642
5644 5646 5649 5655 5665 5667 5672 5677 5679 5680 5682 5684 5684 5684 5685 5685 5683 5682 5681 5679 5678 5676 5675 5673 5671 5670 5669 5667 5665 5664 5663 5662 5661 5658 5655 5652 5649 5646 5643 5641 5636 5632 5633 5631